Flag for Pakistan Weather past 2 weeks in Karachi, Sindh, Pakistan

Now
77 °F

Scattered clouds.


Feels Like: 79 °F
Forecast: 76 / 87 °F
Wind: 6 mph from West

Location: Karachi Airport

Current Time: Apr 1, 2015 at 9:11:07 AM

Latest Report: Apr 1, 2015 at 7:55 AM


Visibility: 3 mi

Pressure: 29.80 "Hg

Humidity: 79%

Dew point: 70 °F

Location of KarachiLocation

Historic Weather in Karachi — Graph

°F

Karachi temperature yesterday

Maximum temperature yesterday: 90 °F (at 12:25 PM)
Minimum temperature yesterday: 68 °F (at 6:25 AM)
Average temperature yesterday: 80 °F

Past Weeks' High & Low Weather Summary

 TemperatureHumidityPressure
High102 °F (Mar 23, 2:25 PM)89% (Mar 25, 3:30 AM)30.15 "Hg (Mar 25, 3:30 AM)
Low64 °F (Mar 18, 6:55 AM)10% (Mar 30, 2:25 PM)29.71 "Hg (Mar 29, 8:25 PM)
Average83 °F48%29.90 "Hg
* Reported Mar 17 7:25 AM — Apr 1 7:25 AM, Karachi, Weather by CustomWeather, © 2015

Note: Actual official high and low records may vary slightly from our data, if they occured in-between our weather recording intervals... More about our weather records

Advertising

Karachi weather history for previous 24 hours

 ConditionsComfort  
Time TempWeatherWind HumidityBarometerVisibility
7:25 AM
Wed, Apr 1
77 °FScattered clouds.7 mph79%29.80 "Hg3 mi
6:55 AM77 °FScattered clouds.7 mph79%29.80 "Hg3 mi
6:25 AM77 °FScattered clouds.12 mph79%29.80 "Hg4 mi
4:55 AM75 °FPassing clouds.9 mph78%29.77 "Hg4 mi
3:55 AM75 °FPassing clouds.12 mph78%29.77 "Hg4 mi
3:25 AM75 °FPassing clouds.12 mph78%29.77 "Hg4 mi
2:55 AM75 °FPassing clouds.12 mph78%29.80 "Hg4 mi
2:25 AM75 °FPassing clouds.10 mph78%29.80 "Hg4 mi
1:55 AM75 °FPassing clouds.9 mph78%29.80 "Hg4 mi
1:25 AM77 °FClear.8 mph74%29.80 "Hg4 mi
12:55 AM77 °FClear.9 mph69%29.83 "Hg4 mi
12:25 AM77 °FClear.9 mph69%29.83 "Hg4 mi
11:55 PM
Tue, Mar 31
77 °FClear.15 mph69%29.86 "Hg4 mi
11:25 PM77 °FClear.8 mph69%29.86 "Hg4 mi
10:55 PM77 °FClear.2 mph69%29.86 "Hg4 mi
10:25 PM77 °FClear.7 mph65%29.86 "Hg4 mi
9:55 PM79 °FClear.8 mph58%29.86 "Hg4 mi
9:25 PM79 °FClear.9 mph58%29.83 "Hg4 mi
8:25 PM79 °FWarm.12 mph58%29.83 "HgN/A
7:55 PM81 °FWarm.10 mph48%29.83 "HgN/A
7:25 PM81 °FClear.10 mph48%29.83 "Hg4 mi
6:55 PM82 °FClear.13 mph48%29.80 "Hg4 mi
6:25 PM84 °FClear.12 mph48%29.83 "Hg5 mi
5:55 PM86 °FClear.15 mph46%29.80 "Hg5 mi
5:25 PM88 °FClear.14 mph38%29.80 "Hg5 mi
4:55 PM88 °FClear.15 mph35%29.80 "Hg5 mi
4:25 PM90 °FClear.14 mph31%29.80 "Hg5 mi
3:55 PM90 °FClear.14 mph36%29.80 "Hg5 mi
3:25 PM90 °FClear.15 mph33%29.80 "Hg5 mi
2:55 PM90 °FClear.14 mph38%29.80 "Hg5 mi
2:25 PM90 °FClear.15 mph38%29.83 "Hg5 mi
1:55 PM90 °FClear.13 mph38%29.83 "Hg5 mi
1:25 PM90 °FClear.12 mph43%29.86 "Hg5 mi
12:55 PM90 °FClear.13 mph43%29.86 "Hg5 mi
12:25 PM90 °FClear.9 mph41%29.89 "Hg5 mi
11:55 AM88 °FClear.3 mph43%29.89 "Hg5 mi
11:25 AM88 °FClear.7 mph38%29.89 "Hg5 mi
10:55 AM84 °FClear.8 mph48%29.89 "Hg4 mi
10:25 AM84 °FClear.6 mph51%29.89 "Hg4 mi
9:55 AM82 °FHaze.8 mph55%29.89 "Hg4 mi
9:25 AM81 °FHaze.9 mph62%29.89 "Hg4 mi
Weather by CustomWeather, © 2015

See weather overviewHow to use our weather pages